Torna al catalogo

COSMOS 1431

AttivoMilitareLEO
NORAD 13763·PAYLOAD·🇷🇺 Russia

Lanciato Jan 19, 1983 da Plesetsk Cosmodrome

Loading…

Prossimi Passaggi (prossime 24 ore)

TLE

AggiornatoSource: Space-Track

Epoca: Sep 14, 2026, 13:25 UTC

1 13763U 83002C   26257.55946308 -.00000003  00000-0  83328-4 0  9997
2 13763  74.0235 300.0296 0010953 146.9665   7.4638 12.47751445988337

Traccia COSMOS 1431 in tempo reale con AllMySat

Download on the App Store